GLENN Weather Reports


Display with metric or nautical units.
time (UTC)temp
F
wind
direction
speed
MPH
gust
MPH
rain 1hr
in
rain 24hr
in
rain mn
in
humidity
%
barometer
mb
20260901054526 62 76 2.0 4.0 0.00 0.00 0.00 34 1016.5
20260901053029 63 103 1.0 4.0 0.00 0.00 0.00 33 1016.6
20260901051512 64 119 2.0 3.0 0.00 0.00 0.00 32 1016.6
20260901050017 64 90 0.0 3.0 0.00 0.00 0.00 31 1016.7
20260901044523 66 128 2.0 4.0 0.00 0.00 0.00 30 1016.7
20260901043029 66 76 2.0 4.0 0.00 0.00 0.00 28 1016.7
20260901041531 65 109 3.0 6.0 0.00 0.00 0.00 30 1016.8
20260901040017 66 42 1.0 4.0 0.00 0.00 0.00 29 1017.0
20260901034526 67 61 1.0 2.0 0.00 0.00 0.00 28 1017.1
20260901033031 66 98 3.0 4.0 0.00 0.00 0.00 30 1017.0
20260901031532 66 107 2.0 3.0 0.00 0.00 0.00 32 1016.9
20260901030032 65 108 3.0 6.0 0.00 0.00 0.00 31 1016.9
20260901024519 65 94 3.0 4.0 0.00 0.00 0.00 32 1016.8
20260901023037 66 107 2.0 4.0 0.00 0.00 0.00 31 1016.8
20260901021534 68 117 3.0 4.0 0.00 0.00 0.00 30 1016.7
20260901020031 70 111 0.0 3.0 0.00 0.00 0.00 27 1016.7
20260901014534 73 77 0.0 2.0 0.00 0.00 0.00 26 1016.5
20260901013023 74 309 1.0 2.0 0.00 0.00 0.00 23 1016.7
20260901011504 74 319 0.0 3.0 0.00 0.00 0.00 24 1016.6
20260901010008 75 297 1.0 4.0 0.00 0.00 0.00 23 1016.5
20260901004516 76 338 2.0 4.0 0.00 0.00 0.00 22 1016.6
20260901003022 77 336 1.0 4.0 0.00 0.00 0.00 24 1016.7
20260901001504 76 352 1.0 5.0 0.00 0.00 0.00 22 1016.7
20260901000008 77 309 3.0 4.0 0.00 0.00 0.00 21 1016.9
20260831234510 77 338 3.0 7.0 0.00 0.00 0.00 22 1017.0
20260831233016 77 338 3.0 6.0 0.00 0.00 0.00 19 1017.2
20260831231530 76 317 2.0 5.0 0.00 0.00 0.00 22 1017.4
20260831230007 77 13 2.0 5.0 0.00 0.00 0.00 22 1017.5
20260831224508 77 338 2.0 7.0 0.00 0.00 0.00 18 1017.6
20260831223032 76 9 3.0 8.0 0.00 0.00 0.00 22 1017.6
20260831221518 76 12 3.0 5.0 0.00 0.00 0.00 18 1017.8
20260831220026 76 45 1.0 6.0 0.00 0.00 0.00 21 1017.9
20260831214508 76 48 3.0 8.0 0.00 0.00 0.00 18 1018.2
20260831213010 75 360 3.0 6.0 0.00 0.00 0.00 25 1018.4
20260831211529 74 68 2.0 9.0 0.00 0.00 0.00 22 1018.6
20260831210024 74 31 3.0 6.0 0.00 0.00 0.00 25 1018.7
20260831204534 73 347 4.0 10.0 0.00 0.00 0.00 22 1018.9
20260831203018 72 352 2.0 7.0 0.00 0.00 0.00 26 1019.1
20260831201518 72 333 3.0 8.0 0.00 0.00 0.00 26 1019.3
20260831200027 72 337 5.0 10.0 0.00 0.00 0.00 23 1019.3
20260831194544 72 332 3.0 6.0 0.00 0.00 0.00 23 1019.4
20260831193032 71 348 3.0 5.0 0.00 0.00 0.00 25 1019.4
20260831191513 70 333 3.0 10.0 0.00 0.00 0.00 27 1019.6
20260831190019 69 303 3.0 7.0 0.00 0.00 0.00 29 1019.8
20260831184527 67 349 2.0 8.0 0.00 0.00 0.00 37 1020.0
20260831183029 66 318 2.0 7.0 0.00 0.00 0.00 35 1020.2
20260831181534 65 313 2.0 8.0 0.00 0.00 0.00 42 1020.5
20260831180016 64 338 3.0 5.0 0.00 0.00 0.00 43 1020.6
20260831174530 63 299 1.0 5.0 0.00 0.00 0.00 43 1020.6
20260831173027 62 292 4.0 7.0 0.00 0.00 0.00 44 1020.8
20260831171532 61 314 1.0 4.0 0.00 0.00 0.00 44 1020.7
20260831170032 60 5 2.0 5.0 0.00 0.00 0.00 45 1020.9
20260831164525 59 282 2.0 4.0 0.00 0.00 0.00 47 1020.9
20260831163007 58 249 1.0 4.0 0.00 0.00 0.00 45 1020.8
20260831161520 58 258 1.0 4.0 0.00 0.00 0.00 45 1020.8
20260831160016 57 9 0.0 4.0 0.00 0.00 0.00 44 1020.7
20260831154544 57 328 1.0 4.0 0.00 0.00 0.00 49 1020.9
20260831153023 56 342 1.0 5.0 0.00 0.00 0.00 50 1020.8
20260831151505 55 331 2.0 3.0 0.00 0.00 0.00 50 1020.6
20260831150013 57 346 2.0 3.0 0.00 0.06 0.00 51 1020.6
20260831144516 57 36 0.0 0.0 0.00 0.21 0.00 44 1020.6
20260831143019 56 108 0.0 0.0 0.00 0.22 0.00 48 1020.4
20260831141530 52 120 0.0 1.0 0.00 0.22 0.00 55 1020.3
20260831140009 49 118 2.0 4.0 0.00 0.22 0.00 54 1020.3
20260831134513 48 107 2.0 3.0 0.00 0.22 0.00 54 1020.1
20260831133019 48 90 1.0 3.0 0.00 0.22 0.00 52 1020.1
20260831131534 47 98 2.0 3.0 0.00 0.22 0.00 53 1020.0
20260831130031 47 103 2.0 3.0 0.00 0.22 0.00 55 1019.9
20260831124511 47 98 3.0 6.0 0.00 0.22 0.00 55 1019.8
20260831123016 47 99 3.0 3.0 0.00 0.22 0.00 54 1019.7
20260831121524 48 86 2.0 4.0 0.00 0.22 0.00 52 1019.8
20260831120028 48 103 3.0 3.0 0.00 0.23 0.00 53 1019.8
20260831114531 47 106 3.0 4.0 0.00 0.24 0.00 53 1019.7
20260831113016 47 109 2.0 4.0 0.00 0.31 0.00 55 1019.6
20260831111521 47 94 3.0 4.0 0.00 0.37 0.00 55 1019.6
20260831110026 47 103 4.0 6.0 0.00 0.37 0.00 56 1019.7
20260831104537 47 103 3.0 6.0 0.00 0.37 0.00 57 1019.6
20260831103032 47 113 3.0 4.0 0.00 0.37 0.00 58 1019.6
20260831101516 47 109 2.0 4.0 0.00 0.37 0.00 58 1019.5
20260831100022 46 116 3.0 4.0 0.00 0.37 0.00 59 1019.6
20260831094529 46 107 2.0 3.0 0.00 0.37 0.00 60 1019.5
20260831093033 45 115 3.0 4.0 0.00 0.37 0.00 62 1019.5
20260831091529 47 117 3.0 4.0 0.00 0.37 0.00 60 1019.5
20260831090018 47 116 3.0 4.0 0.00 0.37 0.00 58 1019.5
20260831084526 47 116 3.0 4.0 0.00 0.37 0.00 58 1019.4
20260831083038 47 96 3.0 4.0 0.00 0.37 0.00 58 1019.4
20260831081536 47 119 3.0 3.0 0.00 0.37 0.00 60 1019.3
20260831080016 46 119 2.0 4.0 0.00 0.37 0.00 63 1019.3
20260831074521 46 150 4.0 6.0 0.00 0.37 0.00 62 1019.1
20260831073012 49 38 0.0 0.0 0.00 0.37 0.00 53 1019.0
20260831071510 51 335 0.0 0.0 0.00 0.37 0.00 50 1018.8
20260831070023 52 338 0.0 0.0 0.00 0.37 0.00 48 1018.7
20260831064518 52 64 0.0 0.0 0.00 0.37 0.00 48 1018.6
20260831063026 52 136 0.0 2.0 0.00 0.37 0.00 48 1018.4
20260831061509 53 109 1.0 2.0 0.00 0.37 0.00 46 1018.4
20260831060011 53 77 2.0 2.0 0.00 0.37 0.00 46 1018.2